Tracking 33180 objects as of 11-Feb-2026
HD Live streaming from Space Station
objects crossing your sky now

HULIANWANG DIGUI-125

Track HULIANWANG DIGUI-125 now!
10-day predictions


NORAD ID: 67065
Int'l Code: 2025-295G
Perigee: 980.2 km
Apogee: 980.3 km
Inclination: 50.0 °
Period: 104.5 minutes
Semi major axis: 7351 km
RCS: Unknown
Launch date: December 11, 2025
Source: People's Republic of China (PRC)
Launch site: Wenchang Satellite Launch Center (WSC)
Your satellite tracking list
Your tracking list is empty




NASA's NSSDC Master Catalog

Two Line Element Set (TLE):
1 67065U 25295G   26041.59636880 -.00000039  00000-0  10195-3 0  9997
2 67065  50.0010 125.2296 0000095 125.2171 234.8731 13.77400810  8571
Source of the keplerian elements: AFSPC